Вернуться в каталог

DELTA 1 DEB

АктивенPO
NORAD 19834·DEBRIS·🇺🇸 United States

Запущен Jul 23, 1972 с Vandenberg Space Force Base

Loading…

Ближайшие Пролёты (ближайшие 24 часа)

TLE

СвежийSource: Space-Track

Эпоха: Sep 14, 2026, 03:41 UTC

1 19834U 72058JM  26257.15386334  .00000824  00000-0  15208-3 0  9995
2 19834  98.6189  47.1996 0127025 134.0452 227.1296 14.63367540953049

Отслеживайте DELTA 1 DEB в реальном времени с AllMySat

Download on the App Store